Terug naar catalogus

STARLINK-34534

ActiefCommunicatieVLEO
NORAD 64763·PAYLOAD·🇺🇸 United States

Gelanceerd Jul 8, 2025 vanaf Cape Canaveral Space Force Station

Loading…

Volgende Passages (komende 24 uur)

TLE

VersSource: CelesTrak SupGP

Epoch: Sep 14, 2026, 22:39 UTC

1 64763C 25147J   26257.94423611  .00035263  00000+0  10421-2 0  2572
2 64763  53.1580  79.8004 0001260  84.0060 226.6059 15.34364935    19

Volg STARLINK-34534 in realtime met AllMySat

Download on the App Store